Simultaneous Nadir Overpasses (SNOs) Predictions

Prediction of SNOs between NOAA-20 and METOP-C Satellite Orbit:

Table of predicted SNOs for the next 14.0 days since TLE Epoch: 10/10/2020
Index Date (NOAA-20) Time (NOAA-20) Lat,Lon (NOAA-20) SZA (NOAA-20 ) Date (METOP-C) Time (METOP-C) Lat,Lon (METOP-C) SZA (METOP-C ) Distance(km) Time Diff (sec)
1 10/14/2020 23:34:09 73.28, 177.07 81.87 10/14/2020 23:35:17 73.19, 179.36 81.73 74.06 68
2 10/15/2020 00:24:52 -73.22, -15.49 98.18 10/15/2020 00:26:01 -73.14, -13.44 98.31 66.64 69
3 10/15/2020 01:15:33 72.98, 152.34 81.58 10/15/2020 01:16:44 72.92, 153.43 81.50 36.01 71
4 10/15/2020 02:06:16 -72.92, -40.22 98.47 10/15/2020 02:07:28 -72.87, -39.36 98.55 28.80 72
5 10/15/2020 02:56:57 72.68, 127.60 81.29 10/15/2020 02:58:10 72.70, 127.63 81.31 3.17 73
6 10/15/2020 03:47:41 -72.67, -65.07 98.71 10/15/2020 03:48:53 -72.70, -65.05 98.68 3.32 72
7 10/15/2020 04:38:27 72.68, 102.22 81.32 10/15/2020 04:39:32 72.69, 102.25 81.32 1.31 65
8 10/15/2020 05:29:11 -72.67, -90.45 98.68 10/15/2020 05:30:15 -72.68, -90.43 98.67 1.29 64
9 10/15/2020 06:19:57 72.68, 76.84 81.35 10/15/2020 06:20:54 72.67, 76.88 81.33 2.03 57
10 10/15/2020 07:10:41 -72.68,-115.83 98.65 10/15/2020 07:11:37 -72.67,-115.81 98.67 1.66 56
11 10/15/2020 08:01:26 72.63, 51.56 81.32 10/15/2020 08:02:16 72.65, 51.50 81.34 2.73 50
12 10/15/2020 08:52:10 -72.63,-141.11 98.67 10/15/2020 08:52:59 -72.65,-141.18 98.66 3.08 49
13 10/15/2020 09:42:56 72.64, 26.18 81.35 10/15/2020 09:43:38 72.63, 26.12 81.35 2.09 42
14 10/15/2020 10:33:40 -72.63,-166.49 98.64 10/15/2020 10:34:21 -72.63,-166.56 98.65 2.25 41
15 10/15/2020 11:24:26 72.64, 0.80 81.38 10/15/2020 11:24:59 72.66, 0.85 81.40 3.16 33
16 10/15/2020 12:15:10 -72.63, 168.13 98.62 10/15/2020 12:15:42 -72.66, 168.17 98.59 3.33 32
17 10/15/2020 13:05:56 72.64, -24.58 81.41 10/15/2020 13:06:21 72.65, -24.53 81.41 1.74 25
18 10/15/2020 13:56:40 -72.64, 142.75 98.59 10/15/2020 13:57:04 -72.64, 142.79 98.58 1.64 24
19 10/15/2020 14:47:25 72.64, -49.96 81.44 10/15/2020 14:47:42 72.63, -49.90 81.42 2.60 17
20 10/15/2020 15:38:09 -72.64, 117.37 98.56 10/15/2020 15:38:25 -72.63, 117.42 98.57 2.19 16
21 10/15/2020 16:28:54 72.60, -75.23 81.41 10/15/2020 16:29:04 72.61, -75.28 81.43 2.11 10
22 10/15/2020 17:19:38 -72.59, 92.09 98.58 10/15/2020 17:19:47 -72.61, 92.04 98.57 2.51 9
23 10/15/2020 18:10:24 72.60,-100.61 81.44 10/15/2020 18:10:26 72.59,-100.66 81.44 1.65 2
24 10/15/2020 19:01:08 -72.59, 66.71 98.55 10/15/2020 19:01:09 -72.59, 66.66 98.56 1.69 1
25 10/15/2020 19:51:54 72.60,-125.99 81.47 10/15/2020 19:51:47 72.62,-125.93 81.49 3.30 7
26 10/15/2020 20:42:38 -72.60, 41.33 98.53 10/15/2020 20:42:31 -72.57, 41.29 98.55 3.16 7
27 10/15/2020 21:33:24 72.61,-151.37 81.50 10/15/2020 21:33:09 72.61,-151.31 81.50 2.29 15
28 10/15/2020 22:24:08 -72.60, 15.95 98.50 10/15/2020 22:23:52 -72.61, 16.01 98.49 2.14 16
29 10/15/2020 23:14:54 72.61,-176.75 81.53 10/15/2020 23:14:31 72.59,-176.68 81.51 3.22 23
30 10/16/2020 00:05:38 -72.60, -9.43 98.47 10/16/2020 00:05:14 -72.59, -9.36 98.48 2.78 24
31 10/16/2020 00:56:23 72.56, 157.97 81.51 10/16/2020 00:55:53 72.57, 157.94 81.52 1.51 30
32 10/16/2020 01:47:07 -72.55, -34.71 98.49 10/16/2020 01:46:36 -72.57, -34.74 98.47 1.97 31
33 10/16/2020 02:37:53 72.56, 132.59 81.53 10/16/2020 02:37:15 72.55, 132.56 81.53 1.37 38
34 10/16/2020 03:28:37 -72.56, -60.09 98.46 10/16/2020 03:27:58 -72.55, -60.12 98.47 1.20 39
35 10/16/2020 04:19:23 72.57, 107.21 81.56 10/16/2020 04:18:37 72.53, 107.19 81.54 3.50 46
36 10/16/2020 05:10:07 -72.56, -85.47 98.44 10/16/2020 05:09:20 -72.53, -85.49 98.46 3.10 47
37 10/16/2020 06:00:53 72.57, 81.83 81.59 10/16/2020 05:59:58 72.57, 81.91 81.59 2.91 55
38 10/16/2020 06:51:37 -72.56,-110.85 98.41 10/16/2020 06:50:41 -72.57,-110.77 98.40 2.72 56
39 10/16/2020 07:42:22 72.52, 56.55 81.57 10/16/2020 07:41:20 72.55, 56.54 81.60 3.28 62
40 10/16/2020 08:33:07 -72.57,-136.23 98.38 10/16/2020 08:32:03 -72.55,-136.14 98.39 3.41 64
41 10/16/2020 09:23:52 72.52, 31.17 81.60 10/16/2020 09:22:42 72.53, 31.16 81.61 0.98 70
42 10/16/2020 10:14:36 -72.52,-161.50 98.40 10/16/2020 10:13:25 -72.53,-161.52 98.38 1.50 71
43 10/16/2020 11:05:20 72.42, 5.99 81.52 10/16/2020 11:04:06 72.41, 5.58 81.52 13.95 74
44 10/16/2020 11:56:03 -72.37, 173.42 98.53 10/16/2020 11:54:50 -72.36, 172.80 98.52 20.88 73
45 10/16/2020 12:46:44 72.12, -18.79 81.23 10/16/2020 12:45:34 72.08, -20.39 81.24 55.11 70
46 10/16/2020 13:37:27 -72.06, 148.63 98.82 10/16/2020 13:36:17 -72.09, 146.93 98.75 58.43 70
47 10/16/2020 14:28:08 71.81, -43.58 80.94 10/16/2020 14:27:01 71.81, -46.25 81.00 92.66 67
48 10/16/2020 15:18:51 -71.76, 123.83 99.11 10/16/2020 15:17:45 -71.76, 120.98 99.04 99.34 66
